owner,sensor,date,latitude,longitude,air_temperature,qcFlag 
TCOON,ioos:station:TCOON:518:1,2016-02-01T15:36:00Z,29.5150,-94.5133,22.7,1111122 
TCOON,ioos:station:TCOON:518:1,2016-02-01T16:42:00Z,29.5150,-94.5133,22.9,1111122 
TCOON,ioos:station:TCOON:518:1,2016-02-01T17:36:00Z,29.5150,-94.5133,22.7,1111122 
TCOON,ioos:station:TCOON:518:1,2016-02-01T18:36:00Z,29.5150,-94.5133,22.7,1111122 
TCOON,ioos:station:TCOON:518:1,2016-02-01T19:30:00Z,29.5150,-94.5133,23.5,1111122 
TCOON,ioos:station:TCOON:518:1,2016-02-01T20:30:00Z,29.5150,-94.5133,23.9,1111122 
TCOON,ioos:station:TCOON:518:1,2016-02-01T21:30:00Z,29.5150,-94.5133,23.3,1111122 
TCOON,ioos:station:TCOON:518:1,2016-02-01T22:24:00Z,29.5150,-94.5133,24.0,1111122 
TCOON,ioos:station:TCOON:518:1,2016-02-01T23:24:00Z,29.5150,-94.5133,23.6,1111122 
TCOON,ioos:station:TCOON:518:1,2016-02-02T00:24:00Z,29.5150,-94.5133,23.7,1111122 
TCOON,ioos:station:TCOON:518:1,2016-02-02T01:24:00Z,29.5150,-94.5133,23.5,1111122 
TCOON,ioos:station:TCOON:518:1,2016-02-02T02:24:00Z,29.5150,-94.5133,23.6,1111122 
TCOON,ioos:station:TCOON:518:1,2016-02-02T03:24:00Z,29.5150,-94.5133,23.9,1111122 
TCOON,ioos:station:TCOON:518:1,2016-02-02T04:24:00Z,29.5150,-94.5133,23.9,1111122 
TCOON,ioos:station:TCOON:518:1,2016-02-02T05:24:00Z,29.5150,-94.5133,23.7,1111122 
TCOON,ioos:station:TCOON:518:1,2016-02-02T06:30:00Z,29.5150,-94.5133,24.0,1111122 
TCOON,ioos:station:TCOON:518:1,2016-02-02T07:30:00Z,29.5150,-94.5133,24.0,1111122 
TCOON,ioos:station:TCOON:518:1,2016-02-02T08:24:00Z,29.5150,-94.5133,24.1,1111122 
TCOON,ioos:station:TCOON:518:1,2016-02-02T09:36:00Z,29.5150,-94.5133,25.3,1111122 
TCOON,ioos:station:TCOON:518:1,2016-02-02T10:24:00Z,29.5150,-94.5133,24.8,1111122 
TCOON,ioos:station:TCOON:518:1,2016-02-02T11:24:00Z,29.5150,-94.5133,24.2,1111122 
TCOON,ioos:station:TCOON:518:1,2016-02-02T12:24:00Z,29.5150,-94.5133,23.5,1111122 
TCOON,ioos:station:TCOON:518:1,2016-02-02T13:24:00Z,29.5150,-94.5133,23.5,1111122 
TCOON,ioos:station:TCOON:518:1,2016-02-02T14:24:00Z,29.5150,-94.5133,23.4,1111122 
TCOON,ioos:station:TCOON:518:1,2016-02-02T15:24:00Z,29.5150,-94.5133,23.7,1111122 
TCOON,ioos:station:TCOON:518:1,2016-02-02T18:36:00Z,29.5150,-94.5133,22.2,1111122 
TCOON,ioos:station:TCOON:518:1,2016-02-02T19:24:00Z,29.5150,-94.5133,21.9,1111122 
TCOON,ioos:station:TCOON:518:1,2016-02-02T20:24:00Z,29.5150,-94.5133,22.5,1111122 
TCOON,ioos:station:TCOON:518:1,2016-02-02T21:24:00Z,29.5150,-94.5133,23.1,1111122 
TCOON,ioos:station:TCOON:518:1,2016-02-02T22:30:00Z,29.5150,-94.5133,23.4,1111122 
TCOON,ioos:station:TCOON:518:1,2016-02-02T23:18:00Z,29.5150,-94.5133,24.3,1111122 
TCOON,ioos:station:TCOON:518:1,2016-02-03T00:24:00Z,29.5150,-94.5133,22.3,1111122 
TCOON,ioos:station:TCOON:518:1,2016-02-03T01:24:00Z,29.5150,-94.5133,21.6,1111122 
TCOON,ioos:station:TCOON:518:1,2016-02-03T02:18:00Z,29.5150,-94.5133,21.1,1111122 
TCOON,ioos:station:TCOON:518:1,2016-02-03T03:24:00Z,29.5150,-94.5133,21.3,1111122 
TCOON,ioos:station:TCOON:518:1,2016-02-03T04:24:00Z,29.5150,-94.5133,21.6,1111122 
TCOON,ioos:station:TCOON:518:1,2016-02-03T05:18:00Z,29.5150,-94.5133,21.9,1111122 
TCOON,ioos:station:TCOON:518:1,2016-02-03T06:24:00Z,29.5150,-94.5133,20.7,1111122 
TCOON,ioos:station:TCOON:518:1,2016-02-03T07:24:00Z,29.5150,-94.5133,21.1,1111122 
TCOON,ioos:station:TCOON:518:1,2016-02-03T08:24:00Z,29.5150,-94.5133,21.1,1111122 
TCOON,ioos:station:TCOON:518:1,2016-02-03T09:36:00Z,29.5150,-94.5133,19.7,1111122 
TCOON,ioos:station:TCOON:518:1,2016-02-03T10:24:00Z,29.5150,-94.5133,18.1,1111122 
TCOON,ioos:station:TCOON:518:1,2016-02-03T11:24:00Z,29.5150,-94.5133,17.2,1111122 
TCOON,ioos:station:TCOON:518:1,2016-02-03T12:18:00Z,29.5150,-94.5133,16.6,1111122 
TCOON,ioos:station:TCOON:518:1,2016-02-03T13:24:00Z,29.5150,-94.5133,16.3,1111122 
TCOON,ioos:station:TCOON:518:1,2016-02-03T14:24:00Z,29.5150,-94.5133,16.2,1111122 
TCOON,ioos:station:TCOON:518:1,2016-02-03T15:24:00Z,29.5150,-94.5133,16.2,1111122 
TCOON,ioos:station:TCOON:518:1,2016-02-03T16:24:00Z,29.5150,-94.5133,16.7,1111122 
TCOON,ioos:station:TCOON:518:1,2016-02-03T17:18:00Z,29.5150,-94.5133,17.0,1111122 
TCOON,ioos:station:TCOON:518:1,2016-02-03T18:24:00Z,29.5150,-94.5133,18.4,1111122 
TCOON,ioos:station:TCOON:518:1,2016-02-03T19:42:00Z,29.5150,-94.5133,19.8,1111122 
TCOON,ioos:station:TCOON:518:1,2016-02-04T19:30:00Z,29.5150,-94.5133,17.1,1111122 
TCOON,ioos:station:TCOON:518:1,2016-02-04T21:24:00Z,29.5150,-94.5133,18.8,1111122 
TCOON,ioos:station:TCOON:518:1,2016-02-04T23:00:00Z,29.5150,-94.5133,19.2,1111122 
TCOON,ioos:station:TCOON:518:1,2016-02-05T19:42:00Z,29.5150,-94.5133,17.2,1111122 
TCOON,ioos:station:TCOON:518:1,2016-02-07T12:30:00Z,29.5150,-94.5133,13.4,1111122 
TCOON,ioos:station:TCOON:518:1,2016-02-07T13:42:00Z,29.5150,-94.5133,14.2,1111122 
TCOON,ioos:station:TCOON:518:1,2016-02-07T14:48:00Z,29.5150,-94.5133,15.5,1111122 
TCOON,ioos:station:TCOON:518:1,2016-02-07T15:12:00Z,29.5150,-94.5133,15.5,1111122 
TCOON,ioos:station:TCOON:518:1,2016-02-07T16:12:00Z,29.5150,-94.5133,16.8,1111122 
TCOON,ioos:station:TCOON:518:1,2016-02-07T17:12:00Z,29.5150,-94.5133,17.3,1111122 
TCOON,ioos:station:TCOON:518:1,2016-02-07T18:12:00Z,29.5150,-94.5133,17.8,1111122 
TCOON,ioos:station:TCOON:518:1,2016-02-07T19:12:00Z,29.5150,-94.5133,19.2,1111122 
TCOON,ioos:station:TCOON:518:1,2016-02-07T20:12:00Z,29.5150,-94.5133,19.3,1111122 
TCOON,ioos:station:TCOON:518:1,2016-02-07T21:18:00Z,29.5150,-94.5133,19.7,1111122 
TCOON,ioos:station:TCOON:518:1,2016-02-07T22:18:00Z,29.5150,-94.5133,19.9,1111122 
TCOON,ioos:station:TCOON:518:1,2016-02-07T23:12:00Z,29.5150,-94.5133,20.0,1111122 
TCOON,ioos:station:TCOON:518:1,2016-02-08T00:12:00Z,29.5150,-94.5133,18.9,1111122 
TCOON,ioos:station:TCOON:518:1,2016-02-08T01:12:00Z,29.5150,-94.5133,19.0,1111122 
TCOON,ioos:station:TCOON:518:1,2016-02-08T02:12:00Z,29.5150,-94.5133,18.9,1111122 
TCOON,ioos:station:TCOON:518:1,2016-02-08T03:12:00Z,29.5150,-94.5133,19.2,1111122 
TCOON,ioos:station:TCOON:518:1,2016-02-08T04:12:00Z,29.5150,-94.5133,18.2,1111122 
TCOON,ioos:station:TCOON:518:1,2016-02-08T05:12:00Z,29.5150,-94.5133,17.7,1111122 
TCOON,ioos:station:TCOON:518:1,2016-02-08T06:12:00Z,29.5150,-94.5133,17.6,1111122 
TCOON,ioos:station:TCOON:518:1,2016-02-08T07:12:00Z,29.5150,-94.5133,17.4,1111122 
TCOON,ioos:station:TCOON:518:1,2016-02-08T08:12:00Z,29.5150,-94.5133,17.9,1111122 
TCOON,ioos:station:TCOON:518:1,2016-02-08T09:36:00Z,29.5150,-94.5133,18.6,1111122 
TCOON,ioos:station:TCOON:518:1,2016-02-08T10:12:00Z,29.5150,-94.5133,18.1,1111122 
TCOON,ioos:station:TCOON:518:1,2016-02-08T11:12:00Z,29.5150,-94.5133,17.2,1111122 
TCOON,ioos:station:TCOON:518:1,2016-02-08T12:12:00Z,29.5150,-94.5133,17.7,1111122 
TCOON,ioos:station:TCOON:518:1,2016-02-08T13:12:00Z,29.5150,-94.5133,16.2,1111122 
TCOON,ioos:station:TCOON:518:1,2016-02-08T14:12:00Z,29.5150,-94.5133,15.7,1111122 
TCOON,ioos:station:TCOON:518:1,2016-02-08T15:18:00Z,29.5150,-94.5133,17.3,1111122 
TCOON,ioos:station:TCOON:518:1,2016-02-08T16:18:00Z,29.5150,-94.5133,18.2,1111122 
TCOON,ioos:station:TCOON:518:1,2016-02-08T17:18:00Z,29.5150,-94.5133,19.1,1111122 
TCOON,ioos:station:TCOON:518:1,2016-02-08T18:12:00Z,29.5150,-94.5133,19.9,1111122 
TCOON,ioos:station:TCOON:518:1,2016-02-08T19:12:00Z,29.5150,-94.5133,20.3,1111122 
TCOON,ioos:station:TCOON:518:1,2016-02-08T20:12:00Z,29.5150,-94.5133,20.6,1111122 
TCOON,ioos:station:TCOON:518:1,2016-02-08T21:18:00Z,29.5150,-94.5133,21.1,1111122 
TCOON,ioos:station:TCOON:518:1,2016-02-08T22:12:00Z,29.5150,-94.5133,21.5,1111122 
TCOON,ioos:station:TCOON:518:1,2016-02-08T23:12:00Z,29.5150,-94.5133,21.2,1111122 
TCOON,ioos:station:TCOON:518:1,2016-02-09T00:12:00Z,29.5150,-94.5133,20.0,1111122 
TCOON,ioos:station:TCOON:518:1,2016-02-09T01:12:00Z,29.5150,-94.5133,19.5,1111122 
TCOON,ioos:station:TCOON:518:1,2016-02-09T02:12:00Z,29.5150,-94.5133,18.7,1111122 
TCOON,ioos:station:TCOON:518:1,2016-02-09T03:12:00Z,29.5150,-94.5133,18.5,1111122 
TCOON,ioos:station:TCOON:518:1,2016-02-09T04:12:00Z,29.5150,-94.5133,18.3,1111122 
TCOON,ioos:station:TCOON:518:1,2016-02-09T05:12:00Z,29.5150,-94.5133,18.0,1111122 
TCOON,ioos:station:TCOON:518:1,2016-02-09T06:12:00Z,29.5150,-94.5133,17.9,1111122 
TCOON,ioos:station:TCOON:518:1,2016-02-09T07:12:00Z,29.5150,-94.5133,17.1,1111122 
TCOON,ioos:station:TCOON:518:1,2016-02-09T08:12:00Z,29.5150,-94.5133,16.9,1111122 
TCOON,ioos:station:TCOON:518:1,2016-02-09T09:30:00Z,29.5150,-94.5133,15.9,1111122 
TCOON,ioos:station:TCOON:518:1,2016-02-09T10:12:00Z,29.5150,-94.5133,15.4,1111122 
TCOON,ioos:station:TCOON:518:1,2016-02-09T11:12:00Z,29.5150,-94.5133,14.9,1111122 
TCOON,ioos:station:TCOON:518:1,2016-02-09T12:12:00Z,29.5150,-94.5133,14.9,1111122 
TCOON,ioos:station:TCOON:518:1,2016-02-09T13:12:00Z,29.5150,-94.5133,14.2,1111122 
TCOON,ioos:station:TCOON:518:1,2016-02-09T14:24:00Z,29.5150,-94.5133,13.6,1111122 
TCOON,ioos:station:TCOON:518:1,2016-02-09T15:12:00Z,29.5150,-94.5133,14.2,1111122 
TCOON,ioos:station:TCOON:518:1,2016-02-09T16:18:00Z,29.5150,-94.5133,15.2,1111122 
TCOON,ioos:station:TCOON:518:1,2016-02-09T17:18:00Z,29.5150,-94.5133,16.6,1111122 
TCOON,ioos:station:TCOON:518:1,2016-02-09T18:12:00Z,29.5150,-94.5133,17.5,1111122 
TCOON,ioos:station:TCOON:518:1,2016-02-09T19:12:00Z,29.5150,-94.5133,19.0,1111122 
TCOON,ioos:station:TCOON:518:1,2016-02-09T20:18:00Z,29.5150,-94.5133,20.5,1111122 
TCOON,ioos:station:TCOON:518:1,2016-02-09T21:18:00Z,29.5150,-94.5133,21.5,1111122 
TCOON,ioos:station:TCOON:518:1,2016-02-09T22:18:00Z,29.5150,-94.5133,22.0,1111122 
TCOON,ioos:station:TCOON:518:1,2016-02-09T23:12:00Z,29.5150,-94.5133,22.1,1111122 
TCOON,ioos:station:TCOON:518:1,2016-02-10T00:12:00Z,29.5150,-94.5133,20.8,1111122 
TCOON,ioos:station:TCOON:518:1,2016-02-10T01:12:00Z,29.5150,-94.5133,19.2,1111122 
TCOON,ioos:station:TCOON:518:1,2016-02-10T02:12:00Z,29.5150,-94.5133,18.9,1111122 
TCOON,ioos:station:TCOON:518:1,2016-02-10T03:12:00Z,29.5150,-94.5133,17.2,1111122 
TCOON,ioos:station:TCOON:518:1,2016-02-10T04:12:00Z,29.5150,-94.5133,18.4,1111122 
TCOON,ioos:station:TCOON:518:1,2016-02-10T05:12:00Z,29.5150,-94.5133,16.3,1111122 
TCOON,ioos:station:TCOON:518:1,2016-02-10T07:12:00Z,29.5150,-94.5133,17.3,1111122 
TCOON,ioos:station:TCOON:518:1,2016-02-10T08:12:00Z,29.5150,-94.5133,18.3,1111122 
TCOON,ioos:station:TCOON:518:1,2016-02-10T09:36:00Z,29.5150,-94.5133,15.4,1111122 
TCOON,ioos:station:TCOON:518:1,2016-02-10T10:12:00Z,29.5150,-94.5133,14.7,1111122 
TCOON,ioos:station:TCOON:518:1,2016-02-10T11:12:00Z,29.5150,-94.5133,14.4,1111122 
TCOON,ioos:station:TCOON:518:1,2016-02-10T12:12:00Z,29.5150,-94.5133,13.8,1111122 
TCOON,ioos:station:TCOON:518:1,2016-02-10T13:12:00Z,29.5150,-94.5133,14.2,1111122 
TCOON,ioos:station:TCOON:518:1,2016-02-10T14:12:00Z,29.5150,-94.5133,15.4,1111122 
TCOON,ioos:station:TCOON:518:1,2016-02-10T15:18:00Z,29.5150,-94.5133,17.9,1111122 
TCOON,ioos:station:TCOON:518:1,2016-02-10T16:18:00Z,29.5150,-94.5133,17.9,1111122 
TCOON,ioos:station:TCOON:518:1,2016-02-10T17:18:00Z,29.5150,-94.5133,18.0,1111122 
TCOON,ioos:station:TCOON:518:1,2016-02-10T18:18:00Z,29.5150,-94.5133,18.3,1111122 
TCOON,ioos:station:TCOON:518:1,2016-02-10T19:18:00Z,29.5150,-94.5133,18.5,1111122 
TCOON,ioos:station:TCOON:518:1,2016-02-10T20:12:00Z,29.5150,-94.5133,18.5,1111122 
TCOON,ioos:station:TCOON:518:1,2016-02-10T21:18:00Z,29.5150,-94.5133,18.8,1111122 
TCOON,ioos:station:TCOON:518:1,2016-02-10T22:18:00Z,29.5150,-94.5133,19.4,1111122 
TCOON,ioos:station:TCOON:518:1,2016-02-10T23:18:00Z,29.5150,-94.5133,19.3,1111122 
TCOON,ioos:station:TCOON:518:1,2016-02-11T00:18:00Z,29.5150,-94.5133,18.9,1111122 
TCOON,ioos:station:TCOON:518:1,2016-02-11T01:18:00Z,29.5150,-94.5133,19.3,1111122 
TCOON,ioos:station:TCOON:518:1,2016-02-11T02:12:00Z,29.5150,-94.5133,19.7,1111122 
TCOON,ioos:station:TCOON:518:1,2016-02-11T03:12:00Z,29.5150,-94.5133,20.0,1111122 
TCOON,ioos:station:TCOON:518:1,2016-02-11T04:18:00Z,29.5150,-94.5133,20.3,1111122 
TCOON,ioos:station:TCOON:518:1,2016-02-11T05:12:00Z,29.5150,-94.5133,20.6,1111122 
TCOON,ioos:station:TCOON:518:1,2016-02-11T06:12:00Z,29.5150,-94.5133,20.7,1111122 
TCOON,ioos:station:TCOON:518:1,2016-02-11T07:18:00Z,29.5150,-94.5133,20.8,1111122 
TCOON,ioos:station:TCOON:518:1,2016-02-11T08:12:00Z,29.5150,-94.5133,21.0,1111122 
TCOON,ioos:station:TCOON:518:1,2016-02-11T09:36:00Z,29.5150,-94.5133,20.9,1111122 
TCOON,ioos:station:TCOON:518:1,2016-02-11T10:24:00Z,29.5150,-94.5133,20.3,1111122 
TCOON,ioos:station:TCOON:518:1,2016-02-11T11:24:00Z,29.5150,-94.5133,20.3,1111122 
TCOON,ioos:station:TCOON:518:1,2016-02-11T12:18:00Z,29.5150,-94.5133,19.8,1111122 
TCOON,ioos:station:TCOON:518:1,2016-02-11T13:18:00Z,29.5150,-94.5133,19.9,1111122 
TCOON,ioos:station:TCOON:518:1,2016-02-11T14:24:00Z,29.5150,-94.5133,21.8,1111122 
TCOON,ioos:station:TCOON:518:1,2016-02-11T15:24:00Z,29.5150,-94.5133,23.3,1111122 
TCOON,ioos:station:TCOON:518:1,2016-02-11T16:24:00Z,29.5150,-94.5133,23.8,1111122 
TCOON,ioos:station:TCOON:518:1,2016-02-11T17:18:00Z,29.5150,-94.5133,24.4,1111122 
TCOON,ioos:station:TCOON:518:1,2016-02-11T18:12:00Z,29.5150,-94.5133,25.0,1111122 
TCOON,ioos:station:TCOON:518:1,2016-02-11T19:18:00Z,29.5150,-94.5133,25.3,1111122 
TCOON,ioos:station:TCOON:518:1,2016-02-11T20:18:00Z,29.5150,-94.5133,25.1,1111122 
TCOON,ioos:station:TCOON:518:1,2016-02-11T21:18:00Z,29.5150,-94.5133,25.1,1111122 
TCOON,ioos:station:TCOON:518:1,2016-02-11T22:12:00Z,29.5150,-94.5133,24.6,1111122 
TCOON,ioos:station:TCOON:518:1,2016-02-11T23:12:00Z,29.5150,-94.5133,24.2,1111122 
TCOON,ioos:station:TCOON:518:1,2016-02-12T00:12:00Z,29.5150,-94.5133,22.6,1111122 
TCOON,ioos:station:TCOON:518:1,2016-02-12T01:12:00Z,29.5150,-94.5133,21.8,1111122 
TCOON,ioos:station:TCOON:518:1,2016-02-12T02:12:00Z,29.5150,-94.5133,21.4,1111122 
TCOON,ioos:station:TCOON:518:1,2016-02-12T03:12:00Z,29.5150,-94.5133,21.0,1111122 
TCOON,ioos:station:TCOON:518:1,2016-02-12T04:12:00Z,29.5150,-94.5133,20.8,1111122 
TCOON,ioos:station:TCOON:518:1,2016-02-12T05:12:00Z,29.5150,-94.5133,21.2,1111122 
TCOON,ioos:station:TCOON:518:1,2016-02-12T06:12:00Z,29.5150,-94.5133,20.9,1111122 
TCOON,ioos:station:TCOON:518:1,2016-02-12T07:12:00Z,29.5150,-94.5133,20.9,1111122 
TCOON,ioos:station:TCOON:518:1,2016-02-12T08:12:00Z,29.5150,-94.5133,21.0,1111122 
TCOON,ioos:station:TCOON:518:1,2016-02-12T09:30:00Z,29.5150,-94.5133,20.8,1111122 
TCOON,ioos:station:TCOON:518:1,2016-02-12T10:12:00Z,29.5150,-94.5133,20.7,1111122 
TCOON,ioos:station:TCOON:518:1,2016-02-12T11:12:00Z,29.5150,-94.5133,20.6,1111122 
TCOON,ioos:station:TCOON:518:1,2016-02-12T12:12:00Z,29.5150,-94.5133,20.1,1111122 
TCOON,ioos:station:TCOON:518:1,2016-02-12T13:12:00Z,29.5150,-94.5133,19.9,1111122 
TCOON,ioos:station:TCOON:518:1,2016-02-12T14:12:00Z,29.5150,-94.5133,22.2,1111122 
TCOON,ioos:station:TCOON:518:1,2016-02-12T15:12:00Z,29.5150,-94.5133,23.9,1111122 
TCOON,ioos:station:TCOON:518:1,2016-02-12T16:12:00Z,29.5150,-94.5133,25.3,1111122 
TCOON,ioos:station:TCOON:518:1,2016-02-12T17:12:00Z,29.5150,-94.5133,26.7,1111122 
TCOON,ioos:station:TCOON:518:1,2016-02-12T18:12:00Z,29.5150,-94.5133,26.4,1111122 
TCOON,ioos:station:TCOON:518:1,2016-02-12T19:12:00Z,29.5150,-94.5133,26.5,1111122 
TCOON,ioos:station:TCOON:518:1,2016-02-12T20:12:00Z,29.5150,-94.5133,26.0,1111122 
TCOON,ioos:station:TCOON:518:1,2016-02-12T21:12:00Z,29.5150,-94.5133,25.9,1111122 
TCOON,ioos:station:TCOON:518:1,2016-02-12T22:12:00Z,29.5150,-94.5133,25.3,1111122 
TCOON,ioos:station:TCOON:518:1,2016-02-12T23:12:00Z,29.5150,-94.5133,24.6,1111122 
TCOON,ioos:station:TCOON:518:1,2016-02-13T00:12:00Z,29.5150,-94.5133,23.2,1111122 
TCOON,ioos:station:TCOON:518:1,2016-02-13T01:12:00Z,29.5150,-94.5133,22.6,1111122 
TCOON,ioos:station:TCOON:518:1,2016-02-13T02:12:00Z,29.5150,-94.5133,22.2,1111122 
TCOON,ioos:station:TCOON:518:1,2016-02-13T03:12:00Z,29.5150,-94.5133,22.0,1111122 
TCOON,ioos:station:TCOON:518:1,2016-02-13T04:12:00Z,29.5150,-94.5133,21.3,1111122 
TCOON,ioos:station:TCOON:518:1,2016-02-13T05:12:00Z,29.5150,-94.5133,21.0,1111122 
TCOON,ioos:station:TCOON:518:1,2016-02-13T06:12:00Z,29.5150,-94.5133,20.9,1111122 
TCOON,ioos:station:TCOON:518:1,2016-02-13T07:12:00Z,29.5150,-94.5133,21.1,1111122 
TCOON,ioos:station:TCOON:518:1,2016-02-13T08:12:00Z,29.5150,-94.5133,20.8,1111122 
TCOON,ioos:station:TCOON:518:1,2016-02-13T09:18:00Z,29.5150,-94.5133,21.4,1111122 
TCOON,ioos:station:TCOON:518:1,2016-02-13T10:12:00Z,29.5150,-94.5133,20.0,1111122 
TCOON,ioos:station:TCOON:518:1,2016-02-13T11:12:00Z,29.5150,-94.5133,19.1,1111122 
TCOON,ioos:station:TCOON:518:1,2016-02-13T12:12:00Z,29.5150,-94.5133,19.2,1111122 
TCOON,ioos:station:TCOON:518:1,2016-02-13T13:12:00Z,29.5150,-94.5133,19.7,1111122 
TCOON,ioos:station:TCOON:518:1,2016-02-13T14:12:00Z,29.5150,-94.5133,19.1,1111122 
TCOON,ioos:station:TCOON:518:1,2016-02-13T15:12:00Z,29.5150,-94.5133,20.4,1111122 
TCOON,ioos:station:TCOON:518:1,2016-02-13T16:12:00Z,29.5150,-94.5133,20.7,1111122 
TCOON,ioos:station:TCOON:518:1,2016-02-13T17:12:00Z,29.5150,-94.5133,20.4,1111122 
TCOON,ioos:station:TCOON:518:1,2016-02-13T18:12:00Z,29.5150,-94.5133,20.4,1111122 
TCOON,ioos:station:TCOON:518:1,2016-02-13T19:12:00Z,29.5150,-94.5133,20.4,1111122 
TCOON,ioos:station:TCOON:518:1,2016-02-13T20:12:00Z,29.5150,-94.5133,20.8,1111122 
TCOON,ioos:station:TCOON:518:1,2016-02-13T21:12:00Z,29.5150,-94.5133,20.5,1111122 
TCOON,ioos:station:TCOON:518:1,2016-02-13T22:12:00Z,29.5150,-94.5133,20.5,1111122 
TCOON,ioos:station:TCOON:518:1,2016-02-13T23:12:00Z,29.5150,-94.5133,20.4,1111122 
TCOON,ioos:station:TCOON:518:1,2016-02-14T00:12:00Z,29.5150,-94.5133,20.4,1111122 
TCOON,ioos:station:TCOON:518:1,2016-02-14T01:12:00Z,29.5150,-94.5133,20.4,1111122 
TCOON,ioos:station:TCOON:518:1,2016-02-14T02:12:00Z,29.5150,-94.5133,20.3,1111122 
TCOON,ioos:station:TCOON:518:1,2016-02-14T03:12:00Z,29.5150,-94.5133,20.3,1111122 
TCOON,ioos:station:TCOON:518:1,2016-02-14T04:12:00Z,29.5150,-94.5133,20.4,1111122 
TCOON,ioos:station:TCOON:518:1,2016-02-14T05:12:00Z,29.5150,-94.5133,20.5,1111122 
TCOON,ioos:station:TCOON:518:1,2016-02-14T06:12:00Z,29.5150,-94.5133,20.7,1111122 
TCOON,ioos:station:TCOON:518:1,2016-02-14T07:12:00Z,29.5150,-94.5133,20.7,1111122 
TCOON,ioos:station:TCOON:518:1,2016-02-14T08:12:00Z,29.5150,-94.5133,20.8,1111122 
TCOON,ioos:station:TCOON:518:1,2016-02-14T09:30:00Z,29.5150,-94.5133,21.1,1111122 
TCOON,ioos:station:TCOON:518:1,2016-02-14T10:12:00Z,29.5150,-94.5133,21.1,1111122 
TCOON,ioos:station:TCOON:518:1,2016-02-14T11:12:00Z,29.5150,-94.5133,21.2,1111122 
TCOON,ioos:station:TCOON:518:1,2016-02-14T12:12:00Z,29.5150,-94.5133,20.9,1111122 
TCOON,ioos:station:TCOON:518:1,2016-02-14T13:12:00Z,29.5150,-94.5133,21.0,1111122 
TCOON,ioos:station:TCOON:518:1,2016-02-14T14:12:00Z,29.5150,-94.5133,21.9,1111122 
TCOON,ioos:station:TCOON:518:1,2016-02-14T15:12:00Z,29.5150,-94.5133,22.4,1111122 
TCOON,ioos:station:TCOON:518:1,2016-02-14T16:12:00Z,29.5150,-94.5133,22.8,1111122 
TCOON,ioos:station:TCOON:518:1,2016-02-14T17:12:00Z,29.5150,-94.5133,23.9,1111122 
TCOON,ioos:station:TCOON:518:1,2016-02-14T18:12:00Z,29.5150,-94.5133,23.8,1111122 
TCOON,ioos:station:TCOON:518:1,2016-02-14T19:12:00Z,29.5150,-94.5133,24.2,1111122 
TCOON,ioos:station:TCOON:518:1,2016-02-14T20:12:00Z,29.5150,-94.5133,24.1,1111122 
TCOON,ioos:station:TCOON:518:1,2016-02-14T21:12:00Z,29.5150,-94.5133,23.4,1111122 
TCOON,ioos:station:TCOON:518:1,2016-02-14T22:18:00Z,29.5150,-94.5133,23.3,1111122 
TCOON,ioos:station:TCOON:518:1,2016-02-14T23:12:00Z,29.5150,-94.5133,22.8,1111122 
TCOON,ioos:station:TCOON:518:1,2016-02-15T00:12:00Z,29.5150,-94.5133,22.4,1111122 
TCOON,ioos:station:TCOON:518:1,2016-02-15T01:12:00Z,29.5150,-94.5133,22.3,1111122 
TCOON,ioos:station:TCOON:518:1,2016-02-15T02:12:00Z,29.5150,-94.5133,22.5,1111122 
TCOON,ioos:station:TCOON:518:1,2016-02-15T03:12:00Z,29.5150,-94.5133,22.8,1111122 
TCOON,ioos:station:TCOON:518:1,2016-02-15T04:12:00Z,29.5150,-94.5133,22.4,1111122 
TCOON,ioos:station:TCOON:518:1,2016-02-15T05:12:00Z,29.5150,-94.5133,22.3,1111122 
TCOON,ioos:station:TCOON:518:1,2016-02-15T06:12:00Z,29.5150,-94.5133,22.2,1111122 
TCOON,ioos:station:TCOON:518:1,2016-02-15T07:12:00Z,29.5150,-94.5133,22.1,1111122 
TCOON,ioos:station:TCOON:518:1,2016-02-15T08:12:00Z,29.5150,-94.5133,22.3,1111122 
TCOON,ioos:station:TCOON:518:1,2016-02-15T09:30:00Z,29.5150,-94.5133,22.4,1111122 
TCOON,ioos:station:TCOON:518:1,2016-02-15T10:12:00Z,29.5150,-94.5133,22.3,1111122 
TCOON,ioos:station:TCOON:518:1,2016-02-15T11:12:00Z,29.5150,-94.5133,22.8,1111122 
TCOON,ioos:station:TCOON:518:1,2016-02-15T12:12:00Z,29.5150,-94.5133,22.7,1111122 
TCOON,ioos:station:TCOON:518:1,2016-02-15T13:12:00Z,29.5150,-94.5133,22.5,1111122 
TCOON,ioos:station:TCOON:518:1,2016-02-15T14:12:00Z,29.5150,-94.5133,23.0,1111122 
TCOON,ioos:station:TCOON:518:1,2016-02-15T15:12:00Z,29.5150,-94.5133,23.6,1111122 
TCOON,ioos:station:TCOON:518:1,2016-02-15T16:12:00Z,29.5150,-94.5133,24.5,1111122 
TCOON,ioos:station:TCOON:518:1,2016-02-15T17:12:00Z,29.5150,-94.5133,25.3,1111122 
TCOON,ioos:station:TCOON:518:1,2016-02-15T18:12:00Z,29.5150,-94.5133,26.5,1111122 
TCOON,ioos:station:TCOON:518:1,2016-02-15T19:12:00Z,29.5150,-94.5133,26.5,1111122 
TCOON,ioos:station:TCOON:518:1,2016-02-15T20:12:00Z,29.5150,-94.5133,27.6,1111122 
TCOON,ioos:station:TCOON:518:1,2016-02-15T21:18:00Z,29.5150,-94.5133,27.1,1111122 
TCOON,ioos:station:TCOON:518:1,2016-02-15T22:18:00Z,29.5150,-94.5133,27.5,1111122 
TCOON,ioos:station:TCOON:518:1,2016-02-15T23:12:00Z,29.5150,-94.5133,26.7,1111122 
TCOON,ioos:station:TCOON:518:1,2016-02-16T00:12:00Z,29.5150,-94.5133,26.0,1111122 
TCOON,ioos:station:TCOON:518:1,2016-02-16T01:12:00Z,29.5150,-94.5133,25.1,1111122 
TCOON,ioos:station:TCOON:518:1,2016-02-16T02:12:00Z,29.5150,-94.5133,23.2,1111122 
TCOON,ioos:station:TCOON:518:1,2016-02-16T03:12:00Z,29.5150,-94.5133,22.8,1111122 
TCOON,ioos:station:TCOON:518:1,2016-02-16T04:12:00Z,29.5150,-94.5133,22.3,1111122 
TCOON,ioos:station:TCOON:518:1,2016-02-16T05:12:00Z,29.5150,-94.5133,21.9,1111122 
TCOON,ioos:station:TCOON:518:1,2016-02-16T06:12:00Z,29.5150,-94.5133,20.3,1111122 
TCOON,ioos:station:TCOON:518:1,2016-02-16T07:12:00Z,29.5150,-94.5133,21.1,1111122 
TCOON,ioos:station:TCOON:518:1,2016-02-16T08:12:00Z,29.5150,-94.5133,19.9,1111122 
TCOON,ioos:station:TCOON:518:1,2016-02-16T09:30:00Z,29.5150,-94.5133,19.6,1111122 
TCOON,ioos:station:TCOON:518:1,2016-02-16T10:12:00Z,29.5150,-94.5133,19.9,1111122 
TCOON,ioos:station:TCOON:518:1,2016-02-16T11:12:00Z,29.5150,-94.5133,19.7,1111122 
TCOON,ioos:station:TCOON:518:1,2016-02-16T12:12:00Z,29.5150,-94.5133,19.5,1111122 
TCOON,ioos:station:TCOON:518:1,2016-02-16T13:12:00Z,29.5150,-94.5133,19.6,1111122 
TCOON,ioos:station:TCOON:518:1,2016-02-16T14:12:00Z,29.5150,-94.5133,22.3,1111122 
TCOON,ioos:station:TCOON:518:1,2016-02-16T15:12:00Z,29.5150,-94.5133,22.7,1111122 
TCOON,ioos:station:TCOON:518:1,2016-02-16T16:12:00Z,29.5150,-94.5133,22.7,1111122 
TCOON,ioos:station:TCOON:518:1,2016-02-16T17:12:00Z,29.5150,-94.5133,22.9,1111122 
TCOON,ioos:station:TCOON:518:1,2016-02-16T18:12:00Z,29.5150,-94.5133,24.2,1111122 
TCOON,ioos:station:TCOON:518:1,2016-02-16T19:12:00Z,29.5150,-94.5133,24.7,1111122 
TCOON,ioos:station:TCOON:518:1,2016-02-16T20:12:00Z,29.5150,-94.5133,24.6,1111122 
TCOON,ioos:station:TCOON:518:1,2016-02-16T21:12:00Z,29.5150,-94.5133,25.0,1111122 
TCOON,ioos:station:TCOON:518:1,2016-02-16T22:18:00Z,29.5150,-94.5133,24.3,1111122 
TCOON,ioos:station:TCOON:518:1,2016-02-16T23:12:00Z,29.5150,-94.5133,24.2,1111122 
TCOON,ioos:station:TCOON:518:1,2016-02-17T00:12:00Z,29.5150,-94.5133,22.4,1111122 
TCOON,ioos:station:TCOON:518:1,2016-02-17T01:18:00Z,29.5150,-94.5133,21.8,1111122 
TCOON,ioos:station:TCOON:518:1,2016-02-17T02:12:00Z,29.5150,-94.5133,21.6,1111122 
TCOON,ioos:station:TCOON:518:1,2016-02-17T03:12:00Z,29.5150,-94.5133,21.6,1111122 
TCOON,ioos:station:TCOON:518:1,2016-02-17T04:12:00Z,29.5150,-94.5133,21.3,1111122 
TCOON,ioos:station:TCOON:518:1,2016-02-17T05:12:00Z,29.5150,-94.5133,21.7,1111122 